View from above orbital plane
|
View from above satellite
|
Ground track
|
The orbit data is extracted from the following two-line orbital elements,
1 15333U 84106A 21060.28903599 -.00000246 00000-0 -10425-3 0 9997
2 15333 71.0273 138.8678 0021936 303.0291 56.8724 14.14114342879301
Epoch (UTC): | 01 March 2021 06:56:12 |
Eccentricity: | 0.0021936 |
inclination: | 71.0273° |
perigee height: | 829 km |
apogee height: | 861 km |
right ascension of ascending node: | 138.8678° |
argument of perigee: | 303.0291° |
revolutions per day: | 14.14114342 |
mean anomaly at epoch: | 56.8724° |
orbit number at epoch: | 87930 |
The dashed part of the orbit path shows where the satellite is in the earth's shadow,
|
|